EHI
0 0 0 0 0 0 0 0 0 0 0 0 0 0 0 0 0 0 0 0 0 0 0 0 0 0 0 0 0 1 2 3 2 1 1 1 0 0 0 0 0 0 0 0
0 0 0 0 0 0 0 0 0 0 0 0 0 0 0 0 0 0 0 0 0 0 0 0 0 0 0 0 0 1 3 3 1 0 0 0 0 0 0 0 0 0 0 0
0 0 0 0 0 0 0 0 0 0 0 0 0 0 0 0 0 0 0 0 0 0 0 0 0 0 0 0 1 2 3 2 1 0 0 0 0 0 0 0 0 0 0 0
0 0 0 0 0 0 0 0 0 0 0 0 0 0 0 0 0 0 0 0 0 0 0 0 0 0 0 0 1 2 2 1 0 0 0 0 0 0 0 0 0 0 0 0
0 0 0 0 0 0 0 0 0 0 0 0 0 0 0 0 0 0 0 0 0 0 0 0 0 0 0 0 1 1 1 0 0 0 0 0 0 0 0 0 0 0 0 0
0 0 0 0 0 0 0 0 0 0 0 0 0 0 0 0 0 0 0 0 0 0 0 0 0 0 0 0 0 0 0 0 0 0 0 0 0 0 0 0 0 0 0 0
0 0 0 0 0 0 0 0 0 0 0 0 0 0 0 0 0 0 0 0 0 0 0 0 0 0 0 0 0 0 0 0 0 0 0 0 0 0 0 0 0 0 0 0
0 0 0 0 0 0 0 0 0 0 0 0 0 0 0 0 0 0 0 0 0 0 0 0 0 0 0 0 0 0 0 0 0 0 0 0 0 0 0 0 0 0 0 0
0 0 0 0 0 0 0 0 0 0 0 0 0 0 0 0 0 0 0 0 0 0 0 0 0 0 0 0 0 0 0 0 0 0 0 0 0 0 0 0 0 0 0 0
0 0 0 0 0 0 0 0 0 0 0 0 0 0 0 0 0 0 0 0 0 0 0 0 0 0 0 0 0 0 0 0 0 0 0 0 0 0 0 0 0 0 0 0
0 0 0 0 0 0 0 0 0 0 0 0 0 0 0 0 0 0 0 0 0 0 0 0 0 0 0 0 0 0 0 0 0 0 0 0 0 0 0 0 0 0 0 0
0 0 0 0 0 0 0 0 0 0 0 0 0 0 0 0 0 0 0 0 0 0 0 0 0 0 0 0 0 0 0 0 0 0 0 0 0 0 0 0 0 0 0 0
0 0 0 0 0 0 0 0 0 0 0 0 0 0 0 0 0 0 0 0 0 0 0 0 0 0 0 0 0 0 0 0 0 0 0 0 0 0 0 0 0 0 0 0
0 0 0 0 0 0 0 0 0 0 0 0 0 0 0 0 0 0 0 0 0 0 0 0 0 0 0 0 0 0 0 0 0 0 0 0 0 0 0 0 0 0 0 0
0 0 0 0 0 0 0 0 0 0 0 0 0 0 0 0 0 0 0 0 0 0 0 0 0 0 0 0 0 0 0 0 0 0 0 0 0 0 0 0 0 0 0 0
0 0 0 0 0 0 0 0 0 0 0 0 0 0 0 0 0 0 0 0 0 0 0 0 0 0 0 0 0 0 0 0 0 0 0 0 0 0 0 0 0 0 0 0
0 0 0 0 0 0 0 0 0 0 0 0 0 0 0 0 0 0 0 0 0 0 0 0 0 0 0 0 0 0 0 0 0 0 0 0 0 0 0 0 0 0 0 0
0 0 0 0 0 0 0 0 0 0 0 0 0 0 0 0 0 0 0 0 0 0 0 0 0 0 0 0 0 0 0 0 0 0 0 0 0 0 0 0 0 0 0 0
0 0 0 0 0 0 0 0 0 0 0 0 0 0 0 0 0 0 0 0 0 0 0 0 0 0 0 0 0 0 0 0 0 0 0 0 0 0 0 0 0 0 0 0
0 0 0 0 0 0 0 0 0 0 0 0 0 0 0 0 0 0 0 0 0 0 0 0 0 0 0 0 0 0 0 0 0 0 0 0 0 0 0 0 0 0 0 0
0 0 0 0 0 0 0 0 0 0 0 0 0 0 0 0 0 0 0 0 0 0 0 0 0 0 0 0 0 0 0 0 0 0 0 0 0 0 0 0 0 0 0 0
0 0 0 0 0 0 0 0 0 0 0 0 0 0 0 0 0 0 0 0 0 0 0 0 0 0 0 0 0 0 0 0 0 0 0 0 0 0 0 0 0 0 0 0
0 0 0 0 0 0 0 0 0 0 0 0 0 0 0 0 0 0 0 0 0 0 0 0 0 0 0 0 0 0 0 0 0 0 0 0 0 0 0 0 0 0 0 0
0 0 0 0 0 0 0 0 0 0 0 0 0 0 0 0 0 0 0 0 0 0 0 0 0 0 0 0 0 0 0 0 0 0 0 0 0 0 0 0 0 0 0 0
0 0 0 0 0 0 0 0 0 0 0 0 0 0 0 0 0 0 0 0 0 0 0 0 0 0 0 0 0 0 0 0 0 0 0 0 0 0 0 0 0 0 0 0
0 0 0 0 0 0 0 0 0 0 0 0 0 0 0 0 0 0 0 0 0 0 0 0 0 0 0 0 0 0 0 0 0 0 0 0 0 0 0 0 0 0 0 0
Wind_Speed
2 5 7 8 9 8 7 10 11 9 4 8 13 15 13 9 8 9 9 8 9 9 8 7 7 7 7 7 8 8 8 8 7 6 6 5 5 4 4 3 5 6 6 6
4 8 7 6 6 8 9 11 11 7 5 7 11 15 12 10 10 9 9 9 9 8 7 7 7 7 7 8 8 8 8 8 8 6 5 4 5 4 3 3 4 5 6 6
8 3 4 6 7 9 11 12 11 8 5 7 9 12 11 9 9 8 7 8 8 7 7 7 8 8 8 8 8 7 8 8 8 8 5 5 4 3 3 4 4 5 5 6
6 4 4 6 8 9 10 8 9 8 8 7 6 9 8 8 8 7 7 7 7 6 6 6 7 8 8 8 8 8 7 7 8 8 8 9 7 6 5 5 4 5 6 5
4 3 5 7 7 8 6 4 7 9 10 9 9 10 7 5 8 7 7 7 6 6 6 6 6 7 7 7 7 7 7 7 7 8 9 9 7 5 4 5 6 6 5 5
3 3 4 4 3 4 3 2 3 5 6 10 10 11 8 4 6 6 6 5 5 4 5 5 5 5 6 5 6 6 7 7 7 7 8 9 9 8 8 7 7 6 4 4
3 3 2 2 2 3 3 3 3 4 6 7 4 9 7 1 2 5 5 5 4 4 4 4 4 5 5 6 6 6 7 7 7 7 7 8 8 9 9 8 7 6 5 4
3 3 1 1 3 4 6 6 4 5 6 4 4 9 3 2 3 3 2 2 2 3 3 4 4 5 5 6 6 6 8 7 7 6 6 6 7 6 5 7 6 6 5 5
3 4 1 1 2 3 5 5 4 5 5 7 7 6 4 1 4 4 3 1 2 2 3 4 4 4 5 5 6 6 7 7 7 7 6 5 6 6 6 6 6 5 5 5
3 5 3 2 1 1 2 2 3 4 5 8 8 8 4 2 4 4 3 3 3 3 3 3 4 4 4 4 5 5 5 5 6 6 5 5 6 6 5 6 6 5 5 5
2 4 2 1 3 3 3 3 3 4 4 6 7 4 1 2 3 4 5 4 3 3 3 3 3 3 4 4 4 4 4 5 4 4 5 5 5 5 5 5 5 5 5 5
2 3 4 4 1 2 3 3 5 5 6 6 6 5 2 3 5 5 5 4 4 3 3 3 3 3 3 4 4 4 4 4 4 4 4 5 5 5 5 5 5 5 5 5
2 2 3 2 2 1 2 3 5 5 4 6 7 7 2 5 6 6 6 6 4 4 3 2 2 2 3 3 4 4 3 4 3 4 4 5 5 5 5 5 5 5 5 5
2 3 6 7 4 2 4 5 6 6 6 8 11 12 8 7 8 8 7 6 4 4 3 2 2 1 2 3 3 3 3 3 3 3 4 4 5 5 5 5 5 5 5 5
2 4 5 7 7 6 7 9 7 9 10 10 11 11 10 8 7 7 6 5 4 4 4 4 3 2 2 2 2 2 2 3 3 3 3 4 4 4 5 5 5 4 5 5
2 4 3 6 6 6 8 9 8 9 10 11 12 12 7 6 6 6 6 4 4 4 5 4 4 3 2 2 2 2 2 2 2 2 3 3 3 3 4 4 4 4 4 4
3 4 4 5 4 5 8 7 7 6 6 7 10 7 5 7 6 6 6 4 4 5 5 5 4 3 2 2 2 1 1 1 2 2 2 2 3 3 4 4 4 4 4 4
3 3 3 3 2 8 2 2 2 6 5 5 5 6 6 7 6 5 4 4 5 5 5 5 4 4 3 2 1 1 1 1 1 1 1 2 2 2 3 4 4 4 4 4
4 4 3 3 5 7 3 1 1 4 6 2 5 7 6 6 5 3 2 5 6 5 4 4 4 3 2 1 0 0 0 0 1 1 1 1 2 2 2 3 4 3 3 3
0 2 3 3 5 7 2 1 2 3 6 1 4 5 4 4 4 3 4 6 6 5 4 3 3 2 2 2 1 1 1 1 0 0 0 0 1 1 2 2 3 2 2 2
1 2 4 6 6 6 2 1 1 4 4 3 4 4 4 4 5 5 5 5 4 4 4 3 2 2 2 2 1 1 1 1 1 1 1 1 0 0 1 1 1 2 2 2
4 4 4 4 6 6 2 2 3 3 4 4 4 4 4 5 4 4 4 4 4 4 4 3 3 3 3 2 2 1 1 1 1 1 1 1 1 0 1 1 1 1 2 2
5 4 3 5 4 2 1 2 2 3 4 4 4 4 4 4 4 4 4 3 3 3 3 3 3 3 3 3 2 2 2 2 1 1 1 1 1 1 1 1 1 1 2 2
3 2 3 4 5 4 3 3 3 3 3 4 3 3 2 3 4 3 3 2 3 3 3 3 3 3 3 3 3 3 3 2 1 1 1 1 1 1 1 0 0 1 1 2
2 3 3 5 5 4 3 4 4 3 3 3 3 3 2 2 3 3 2 2 2 2 2 2 2 2 3 3 4 4 3 2 1 1 1 1 1 1 1 1 1 0 1 2
3 4 5 5 4 4 4 3 3 3 2 2 2 3 3 2 3 3 2 2 2 2 2 2 2 3 3 3 4 4 3 2 1 0 1 0 0 0 0 0 1 2 1 1
Wind_Direction
190 209 216 220 226 248 244 244 250 254 254 245 247 255 254 242 235 236 232 228 226 232 224 207 201 197 193 190 187 183 180 175 168 165 166 167 169 166 166 166 169 171 167 166
197 223 233 236 229 235 238 247 253 258 250 257 263 262 256 240 234 235 236 233 231 234 223 211 202 197 198 195 191 187 185 180 177 175 173 172 163 167 164 164 168 173 171 170
222 231 218 217 226 234 242 243 251 259 274 251 274 262 234 230 227 230 237 238 233 232 227 216 208 203 201 199 196 192 188 184 182 175 160 147 145 149 163 170 173 175 173 176
237 239 215 220 227 232 248 243 251 251 256 253 244 273 241 225 220 226 231 235 237 237 231 218 213 208 205 203 198 192 187 185 184 178 173 171 180 182 186 181 179 178 178 175
228 222 224 230 234 231 251 268 253 249 247 259 235 252 256 211 234 235 233 235 236 236 233 224 220 213 208 201 194 190 186 186 185 186 183 183 187 182 173 174 178 179 178 177
265 238 240 249 247 229 234 241 242 232 233 244 231 233 259 214 238 251 247 244 234 234 232 228 226 216 204 198 192 187 186 188 187 189 189 191 189 181 176 180 181 182 179 181
278 217 199 216 202 183 214 230 235 222 220 241 204 233 255 266 281 278 266 248 232 225 227 225 221 211 202 199 194 189 188 191 191 192 192 195 193 189 187 185 186 185 184 189
271 246 193 232 227 219 211 215 234 252 254 271 228 236 247 25 342 336 310 263 242 235 230 228 225 211 206 203 198 195 193 192 192 194 196 195 194 193 193 192 190 192 193 193
261 268 347 291 300 227 202 220 262 266 271 264 246 247 254 301 341 346 349 343 298 271 250 236 228 216 212 207 204 201 198 195 193 194 193 194 195 196 194 193 193 193 192 188
255 269 288 317 234 233 267 200 203 222 249 259 256 250 257 315 319 318 308 302 298 283 273 257 231 220 215 210 208 204 200 196 194 196 194 194 198 198 193 190 191 190 185 184
255 253 276 261 231 233 184 191 221 228 253 260 265 260 49 322 325 315 308 310 296 279 276 265 240 219 214 208 200 199 198 193 189 197 199 196 197 194 190 191 194 190 184 183
238 254 261 250 252 313 243 229 212 221 234 241 263 272 45 341 339 332 325 316 307 289 278 264 233 214 206 202 199 198 196 196 196 195 197 196 195 190 189 191 191 189 187 185
184 216 263 232 188 173 240 248 240 244 244 239 245 259 48 350 344 340 331 328 323 314 306 283 244 214 208 204 200 198 198 200 198 194 191 195 195 194 195 194 189 188 188 184
214 221 236 253 282 255 252 259 242 227 240 247 247 266 293 319 326 330 330 329 328 335 329 315 286 267 237 216 208 202 200 197 195 195 194 197 200 199 199 195 190 189 190 188
213 233 236 258 272 266 264 269 252 234 244 252 263 268 289 313 313 313 319 323 325 331 337 332 320 313 287 251 227 215 210 203 198 197 200 205 206 200 194 191 188 188 190 191
219 235 237 260 261 263 274 276 259 249 250 254 264 273 313 326 328 328 330 326 320 319 320 323 326 321 303 282 257 234 217 210 201 200 205 206 199 195 191 188 183 184 186 188
215 212 227 256 274 280 266 263 240 235 236 243 256 280 331 317 313 315 313 312 310 313 316 315 315 310 299 284 275 248 230 210 196 192 197 195 193 192 192 186 180 185 188 189
214 210 228 253 244 241 256 55 249 248 251 253 275 303 309 305 304 300 302 308 314 316 312 310 313 313 307 300 300 285 217 190 179 176 182 184 186 195 191 184 183 185 186 190
229 207 209 218 243 260 260 245 251 252 264 258 279 299 323 331 306 276 332 326 319 316 311 307 308 306 314 323 336 122 132 123 147 165 192 186 183 187 188 183 184 184 186 193
161 220 223 219 241 253 283 30 329 248 254 306 296 294 314 319 287 309 338 328 324 330 333 334 330 331 341 350 12 97 100 89 8 332 314 301 198 184 187 192 185 182 184 191
161 218 229 236 244 260 344 356 176 227 298 334 287 282 272 264 286 313 321 325 330 338 344 351 359 358 354 357 17 56 56 354 340 359 17 19 15 185 161 149 160 161 163 165
199 202 211 220 231 250 85 148 215 290 337 316 301 287 275 285 306 308 314 325 340 348 353 359 4 3 3 6 19 21 356 346 14 45 44 28 18 39 120 127 135 145 155 165
217 224 224 214 235 329 191 234 291 318 307 313 310 305 291 291 297 308 314 326 340 346 351 355 357 1 4 6 16 8 343 357 41 56 47 36 28 42 83 140 148 149 168 180
220 252 228 243 256 275 280 278 304 311 307 317 315 307 287 289 293 307 315 325 335 340 345 349 357 359 356 358 1 356 346 357 48 51 33 32 46 52 58 66 160 170 188 197
236 192 220 246 272 290 261 271 283 299 316 322 324 319 301 294 295 301 305 312 321 332 340 346 347 344 343 351 354 352 350 6 44 44 29 27 36 52 45 23 356 291 249 243
204 206 220 247 243 248 273 291 281 278 291 302 313 326 328 308 293 299 303 310 318 328 337 342 343 342 342 345 348 345 345 353 23 30 12 7 14 16 25 42 18 14 306 307